User: anonymous   Login
Location: Darlington Observatory
(36.4817°N, 105.8156°W)
Time: 02:26:02
(UTC-06:00)
Language:

Cosmos 2278 Rocket - Orbit

View from above orbital plane
View from above orbital plane
View from above satellite
View from above satellite

Ground track
Ground track

The orbit data is extracted from the following two-line orbital elements,

1 23088U 94023B   16207.16897608 -.00000011  00000-0  19304-4 0  9994
2 23088  70.9978 248.4158 0005298 248.7023 111.3534 14.14639894149297
Epoch (UTC): 25 July 2016 04:03:19
Eccentricity: 0.0005298
inclination: 70.9978°
perigee height: 840 km
apogee height: 847 km
right ascension of ascending node: 248.4158°
argument of perigee: 248.7023°
revolutions per day: 14.14639894
mean anomaly at epoch: 111.3534°
orbit number at epoch: 14929

The dashed part of the orbit path shows where the satellite is in the earth's shadow,  

DLR